Greenville, ME

9:21 PM EST on November 16, 2019 (GMT -0500)
Greenville

Weather History for KGNR - September, 2019

Change the Weather History Date:

Sunday, September 15, 2019

  Actual Average (WUND) Record (WUND)
Temperature  
Mean Temperature 58 °F -  
Max Temperature 64 °F - - (-1)
Min Temperature 53 °F - - (-1)
Degree Days  
Heating Degree Days 6    
Growing Degree Days 8 (Base 50)    
Moisture  
Dew Point 48 °F    
Average Humidity 73    
Maximum Humidity 100    
Minimum Humidity 58    
Precipitation  
Precipitation 0.00 in - - ()
Sea Level Pressure  
Sea Level Pressure 30.01 in    
Wind  
Wind Speed 5 mph ()    
Max Wind Speed 15 mph    
Max Gust Speed 23 mph    
Averages and records for this station are not official NWS values.
T = Trace of Precipitation, MM = Missing Value Source: Averaged Metar Reports

Daily Weather History Graph

Daily Weather History Graph

Search for Another Location

Airport or City:

Astronomy

Sep. 15, 2019 Rise Set
Actual Time 6:16 AM EDT 6:49 PM EDT
Civil Twilight 5:46 AM EDT 7:19 PM EDT
Nautical Twilight 5:11 AM EDT 7:54 PM EDT
Astronomical Twilight 4:34 AM EDT 8:31 PM EDT
Moon 7:53 PM EDT (9/15) 7:24 AM EDT (9/15)
Length of Visible Light 13h 32m
Length of Day
12h 33m
Full, 98% of the Moon is Illuminated
Sep 15
Full
Sep 21
Last Quarter
Sep 28
New
Oct 5
First Quarter
Oct 13
Full

Hourly Weather History & Observations

Time (EDT) Temp. Dew Point Humidity Pressure Visibility Wind Dir Wind Speed Gust Speed Precip Events Conditions
12:56 AM 55.9 °F 55.0 °F 97% 30.06 in - SSW 5.8 mph - N/A   Unknown
1:56 AM 55.9 °F 55.0 °F 97% 30.04 in - Variable 5.8 mph - N/A   Unknown
2:56 AM 55.0 °F 55.0 °F 100% 30.03 in - Calm Calm - N/A   Unknown
3:56 AM 55.9 °F 54.0 °F 93% 30.03 in - Calm Calm - N/A   Unknown
4:56 AM 57.0 °F 50.0 °F 77% 30.04 in - Calm Calm - N/A   Unknown
5:56 AM 55.9 °F 50.0 °F 80% 30.04 in - Variable 3.5 mph - N/A   Unknown
6:56 AM 55.9 °F 46.9 °F 72% 30.04 in - Variable 3.5 mph - N/A   Unknown
7:56 AM 57.9 °F 48.0 °F 70% 30.04 in - Variable 5.8 mph - N/A   Unknown
8:56 AM 57.9 °F 46.0 °F 65% 30.03 in - Variable 3.5 mph - N/A   Unknown
9:56 AM 57.9 °F 45.0 °F 62% 30.03 in - Variable 5.8 mph - N/A   Unknown
10:56 AM 60.1 °F 46.0 °F 60% 30.02 in - WNW 9.2 mph 17.3 mph N/A   Unknown
11:56 AM 60.1 °F 46.9 °F 62% 30.01 in - NW 12.7 mph 21.9 mph N/A   Unknown
12:56 PM 63.0 °F 48.0 °F 58% 29.99 in - NW 9.2 mph 17.3 mph N/A   Unknown
1:56 PM 63.0 °F 48.9 °F 60% 29.99 in - NW 15.0 mph 20.7 mph N/A   Unknown
2:56 PM 62.1 °F 48.0 °F 60% 29.99 in - NW 13.8 mph 19.6 mph N/A   Unknown
3:56 PM 59.0 °F 46.0 °F 62% 29.98 in - NW 10.4 mph 20.7 mph N/A   Unknown
4:56 PM 57.9 °F 46.9 °F 67% 29.98 in - NW 10.4 mph - N/A   Unknown
5:56 PM 57.0 °F 48.0 °F 72% 29.98 in - NW 8.1 mph - N/A   Unknown
6:56 PM 55.9 °F 46.0 °F 69% 29.99 in - Variable 6.9 mph 23.0 mph N/A   Unknown
7:56 PM 55.9 °F 46.0 °F 69% 30.00 in - Variable 4.6 mph - N/A   Unknown
8:56 PM 55.0 °F 46.0 °F 72% 30.00 in - WNW 5.8 mph - N/A   Unknown
9:56 PM 55.0 °F 46.0 °F 72% 29.99 in - WNW 5.8 mph - N/A   Unknown
10:56 PM 54.0 °F 46.0 °F 75% 29.98 in - NW 11.5 mph 16.1 mph N/A   Unknown
11:56 PM 53.1 °F 46.0 °F 77% 29.98 in - WNW 8.1 mph - N/A   Unknown